Wind_Speed
60 59 55 38 28 49 48 48 45 42 44 47 51 45 42 52 54 52 56 48 46 53 52 47 43 41 43 46 53 54 54 54 55 59 61 60 58 63 69 73 77 79 82
63 64 59 54 53 46 48 47 43 47 38 52 45 50 45 52 54 53 53 51 52 44 43 36 39 44 50 52 50 49 50 54 54 51 54 60 65 70 73 75 79 84 88
60 64 69 64 56 53 47 50 43 41 47 53 50 42 50 49 47 49 49 46 38 32 35 41 45 46 46 46 47 50 51 48 49 55 61 65 67 71 76 82 84 88 92
56 58 62 63 64 60 51 38 39 44 42 40 45 52 46 49 47 46 43 31 30 35 39 41 42 41 42 46 45 43 45 52 57 62 63 67 75 80 84 89 92 93 93
52 56 55 59 60 58 50 44 47 40 42 47 49 50 51 43 42 35 29 31 35 35 34 37 39 39 38 39 41 47 53 58 60 64 69 74 77 83 88 92 95 95 92
45 48 49 52 52 51 49 46 40 39 37 49 45 44 44 31 23 24 31 26 27 30 32 33 31 34 37 42 49 53 57 60 65 69 72 75 83 89 94 95 94 94 92
30 36 38 36 33 31 36 37 36 37 42 42 49 39 21 21 24 22 25 24 27 26 25 27 31 38 44 49 52 57 61 65 69 70 75 84 90 97 98 96 92 92 93
22 20 24 30 32 37 35 34 40 40 43 37 30 22 20 17 19 23 23 21 20 24 26 32 36 40 44 49 52 55 60 62 67 72 82 89 97 101 96 92 92 93 96
28 25 24 29 31 34 32 32 30 29 24 23 20 15 15 18 22 22 21 20 21 25 30 35 39 44 48 50 52 55 59 65 72 79 86 93 100 95 92 91 94 97 99
25 25 23 24 27 26 28 26 26 23 12 7 10 14 16 16 17 17 18 21 24 29 34 39 44 48 50 51 54 57 63 70 75 82 89 97 98 93 90 94 97 101 100
19 19 18 21 27 29 27 16 2 5 5 11 15 12 12 13 15 18 22 26 29 35 39 43 47 50 50 53 56 62 67 72 80 86 91 98 95 92 92 95 99 100 95
28 29 28 24 15 8 5 3 4 9 13 13 10 10 12 14 19 22 26 30 34 39 42 46 49 50 52 55 60 66 70 75 81 86 94 97 92 90 91 94 98 96 87
18 16 13 11 11 8 7 9 10 9 7 8 10 11 15 19 23 27 31 35 40 43 45 49 50 50 53 57 62 67 71 77 82 88 94 94 90 90 90 94 94 91 76
11 12 10 9 8 8 9 10 8 7 9 10 14 16 20 24 28 33 37 40 43 45 48 51 52 53 56 59 65 70 74 78 84 90 94 91 89 87 90 93 90 85 66
9 9 10 9 7 8 9 8 9 11 12 14 16 20 25 29 34 38 41 45 46 47 50 52 53 56 59 64 68 72 76 81 86 91 91 89 88 86 89 90 88 81 59
9 9 7 7 8 10 11 12 13 15 18 20 23 27 31 35 39 42 44 46 47 49 52 53 53 57 60 64 68 72 76 81 85 88 87 87 85 86 87 86 84 76 55
10 10 10 12 14 15 16 19 22 23 24 26 28 33 36 38 40 43 45 46 48 51 54 54 55 59 63 67 70 74 77 82 85 86 86 84 84 85 85 84 82 72 54
14 15 17 20 22 23 23 24 25 26 28 32 36 37 38 40 42 44 46 49 50 53 55 55 58 61 64 68 71 74 79 82 84 83 84 85 84 84 84 83 80 71 56
20 20 22 25 28 29 30 31 33 35 37 38 40 41 40 41 43 46 48 51 54 56 57 57 60 63 67 69 72 75 79 82 83 83 84 83 83 84 84 82 80 71 58
24 27 28 30 31 33 35 37 38 40 42 43 44 45 43 44 45 48 51 54 56 59 61 60 63 66 68 70 72 75 78 81 83 83 85 84 83 84 83 81 78 71 59
26 28 31 35 37 37 38 40 42 44 45 46 46 46 48 48 49 52 54 56 58 61 63 64 65 66 68 71 72 76 79 82 84 84 85 84 84 84 82 80 77 70 59
26 29 31 33 34 35 37 40 42 44 45 46 47 48 50 51 54 56 56 58 61 64 65 66 66 67 69 71 74 78 81 84 85 84 83 83 84 83 81 79 75 68 59
28 31 34 36 38 39 40 40 42 44 47 49 50 50 51 54 55 56 58 60 63 65 67 67 66 68 70 73 77 81 83 84 85 85 84 84 83 82 80 77 72 65 55
32 33 37 37 37 37 38 40 42 44 46 48 51 53 56 56 56 57 59 61 63 66 67 67 68 70 71 75 78 81 83 84 84 85 85 84 83 82 79 73 69 61 53
32 32 33 33 35 36 37 39 41 44 46 49 52 55 55 56 57 59 62 63 65 66 66 68 70 71 73 76 79 81 83 84 85 86 86 85 84 81 76 69 65 55 51
24 24 26 29 31 33 35 38 41 44 47 50 52 54 57 59 60 62 64 65 66 67 68 69 71 73 76 77 79 81 82 83 85 86 86 85 83 78 72 65 57 51 51
Wind_Direction
225 221 219 230 214 244 240 241 229 246 255 259 264 266 277 279 284 283 289 287 287 290 289 284 278 271 276 288 299 309 318 316 311 312 312 312 312 313 313 311 310 310 310
223 217 216 222 228 238 243 242 232 241 250 261 261 271 272 279 278 283 285 281 282 282 281 272 274 289 291 300 317 316 310 312 313 315 315 314 314 312 313 312 314 314 312
223 224 221 223 224 234 237 246 245 238 254 262 262 276 269 286 279 277 278 276 275 268 267 280 288 303 322 316 312 313 314 313 314 314 314 314 314 315 317 318 317 315 314
219 222 227 227 223 232 235 241 247 237 246 263 264 266 271 276 274 279 273 265 262 274 282 300 318 315 310 309 312 314 312 315 315 316 316 318 321 321 320 317 316 314 313
217 222 223 228 230 231 233 227 241 235 275 249 257 263 270 268 272 268 260 274 280 300 319 312 308 312 315 317 315 314 317 316 318 319 320 321 319 318 318 316 314 314 314
216 220 225 227 232 231 235 242 240 242 275 264 277 270 264 258 252 267 276 307 319 309 306 309 313 317 318 318 318 317 317 318 319 318 318 318 320 321 320 317 317 317 315
211 220 219 206 227 224 234 234 242 249 257 266 269 267 245 259 276 310 320 311 309 310 311 314 319 320 318 316 318 319 317 317 317 318 320 320 323 324 321 321 320 318 316
189 191 214 213 213 221 232 232 242 243 252 251 242 243 266 311 318 303 300 305 310 313 320 322 317 315 316 316 316 315 318 320 319 320 323 326 327 325 323 322 320 319 319
190 201 207 199 213 228 229 243 236 229 213 218 248 288 325 300 298 300 308 312 313 312 313 314 316 314 312 314 317 319 320 321 323 326 329 329 328 326 324 322 321 321 323
199 205 219 207 224 231 218 202 201 209 237 309 314 278 287 294 302 309 302 300 307 311 309 312 311 312 314 316 316 318 322 325 326 329 331 331 329 326 324 323 323 325 328
192 205 201 207 190 194 196 197 141 8 297 276 281 290 297 296 294 290 299 305 309 308 310 311 313 313 314 316 319 323 325 327 330 332 333 331 329 327 325 325 327 329 329
144 149 163 169 174 165 106 89 219 239 254 265 282 285 282 285 289 299 306 309 309 308 309 311 313 315 316 318 323 325 327 331 332 335 334 332 329 327 326 327 330 331 329
129 113 117 129 155 163 193 241 246 259 269 268 265 279 286 294 300 304 306 305 304 307 310 313 314 314 317 321 324 326 329 333 335 335 334 333 329 327 328 330 331 331 328
138 144 154 181 192 211 228 242 239 233 249 261 271 286 293 299 304 303 301 302 306 310 313 315 314 315 319 323 327 328 331 333 335 335 334 332 329 328 330 332 332 331 326
169 188 198 201 206 221 225 231 237 252 261 277 292 297 297 297 297 298 302 305 308 311 312 314 316 320 323 325 327 330 333 334 334 334 333 331 329 329 331 332 332 331 322
204 204 209 223 224 225 232 243 258 267 273 279 282 285 291 294 298 301 304 307 309 309 312 315 318 321 323 326 328 330 332 332 333 334 332 329 328 329 332 333 332 331 320
231 230 235 233 229 235 242 246 249 256 268 278 284 289 293 297 299 301 305 307 308 310 312 315 317 321 324 325 326 327 329 330 332 333 330 327 328 330 332 332 332 330 320
252 246 244 242 241 242 248 256 263 269 274 278 283 290 294 297 300 304 307 307 307 308 311 313 317 320 321 322 323 325 327 330 332 331 329 327 327 330 331 331 332 329 320
272 263 260 260 260 260 262 266 271 274 277 283 287 291 295 298 302 305 306 306 308 309 311 311 314 315 317 319 322 324 327 330 330 330 329 327 327 329 329 330 331 329 320
283 276 273 271 268 269 272 275 277 280 284 286 290 294 298 300 301 303 305 307 308 309 309 308 310 313 317 320 323 325 328 329 329 330 329 327 327 328 328 329 329 328 321
302 302 297 292 288 285 284 286 287 286 287 291 296 300 301 300 302 305 306 307 306 306 308 309 312 315 318 320 323 327 328 329 329 330 330 329 326 325 326 328 328 327 321
304 304 304 302 300 298 297 295 293 292 294 297 300 302 303 304 305 305 306 306 307 307 307 310 313 317 319 322 325 328 329 329 329 329 329 328 325 325 326 328 327 325 320
314 315 314 309 305 304 303 301 301 301 304 305 306 306 304 304 305 306 308 308 307 308 311 314 317 319 322 325 327 328 329 329 329 329 328 327 325 325 326 326 325 323 317
312 313 316 315 310 307 307 307 308 309 310 309 309 309 309 307 306 307 308 309 310 311 313 316 317 320 323 324 326 327 327 328 328 328 327 326 325 325 325 325 324 319 314
318 318 320 321 323 320 316 316 316 314 313 313 313 311 309 308 309 311 311 311 311 313 315 316 317 320 323 325 326 327 327 327 327 326 326 325 326 325 324 324 322 318 317
339 341 342 340 334 329 325 322 321 319 317 317 316 314 311 311 311 310 310 310 310 313 315 316 318 321 323 325 325 325 325 326 326 325 325 325 325 325 324 323 322 319 318
Height
5614 5625 5633 5634 5640 5646 5652 5657 5662 5665 5666 5667 5668 5667 5667 5665 5663 5660 5658 5653 5651 5648 5644 5639 5636 5632 5628 5623 5617 5612 5607 5602 5597 5591 5585 5579 5571 5563 5552 5543 5533 5521 5509
5604 5612 5621 5629 5634 5638 5642 5647 5653 5655 5657 5659 5659 5659 5657 5655 5652 5649 5647 5644 5642 5637 5634 5631 5627 5623 5617 5614 5608 5604 5600 5593 5588 5582 5574 5567 5558 5549 5538 5529 5516 5503 5490
5591 5601 5609 5617 5625 5629 5634 5638 5643 5647 5651 5649 5651 5649 5648 5645 5641 5639 5637 5634 5631 5629 5627 5622 5619 5614 5608 5605 5601 5596 5590 5586 5580 5573 5564 5554 5546 5535 5525 5511 5499 5485 5470
5581 5590 5599 5607 5614 5620 5626 5632 5636 5639 5640 5641 5642 5640 5637 5634 5632 5629 5627 5625 5624 5620 5618 5615 5611 5606 5602 5598 5592 5587 5583 5575 5568 5560 5550 5540 5529 5518 5506 5495 5485 5468 5455
5570 5580 5588 5597 5605 5612 5620 5625 5628 5631 5633 5629 5629 5627 5626 5624 5622 5621 5620 5620 5618 5613 5610 5608 5605 5599 5594 5589 5585 5579 5570 5563 5554 5545 5535 5525 5515 5505 5492 5478 5463 5449 5436
5564 5574 5582 5591 5600 5607 5615 5618 5620 5623 5622 5622 5622 5621 5619 5616 5616 5615 5614 5612 5608 5607 5604 5600 5596 5592 5587 5581 5574 5567 5560 5552 5542 5533 5523 5512 5501 5488 5473 5455 5439 5425 5414
5563 5571 5580 5587 5594 5601 5606 5610 5612 5612 5614 5614 5615 5615 5613 5611 5610 5608 5605 5602 5601 5599 5596 5592 5587 5582 5577 5571 5562 5555 5546 5537 5528 5518 5507 5494 5480 5465 5450 5432 5414 5400 5385
5563 5571 5578 5585 5591 5596 5599 5602 5604 5606 5605 5606 5607 5606 5605 5604 5605 5603 5600 5596 5593 5591 5588 5583 5577 5572 5566 5558 5551 5543 5534 5523 5513 5503 5489 5473 5457 5439 5421 5406 5393 5380 5365
5564 5569 5574 5580 5586 5590 5594 5596 5597 5598 5599 5600 5599 5599 5599 5600 5598 5594 5592 5589 5588 5584 5579 5573 5567 5563 5556 5548 5540 5531 5522 5511 5498 5482 5468 5453 5437 5416 5400 5386 5370 5353 5340
5562 5569 5573 5577 5582 5586 5588 5590 5592 5593 5594 5594 5597 5597 5594 5592 5591 5587 5588 5586 5580 5573 5569 5563 5558 5551 5544 5537 5528 5520 5509 5495 5484 5469 5453 5434 5415 5398 5380 5364 5347 5330 5310
5563 5567 5572 5577 5580 5583 5585 5587 5588 5589 5592 5594 5592 5589 5587 5586 5585 5585 5581 5575 5568 5564 5560 5554 5547 5541 5532 5523 5514 5503 5490 5482 5466 5450 5434 5418 5399 5380 5362 5342 5325 5307 5289
5566 5569 5573 5577 5579 5580 5582 5584 5586 5588 5587 5586 5584 5583 5584 5583 5582 5577 5571 5566 5561 5556 5550 5543 5535 5526 5517 5507 5497 5485 5474 5461 5448 5433 5417 5400 5382 5364 5346 5329 5309 5291 5271
5570 5572 5575 5578 5579 5580 5581 5583 5583 5582 5581 5582 5583 5581 5579 5577 5573 5567 5562 5558 5553 5546 5538 5530 5521 5512 5503 5491 5481 5470 5457 5444 5430 5416 5400 5383 5367 5351 5333 5316 5296 5277 5258
5573 5574 5576 5579 5578 5578 5580 5580 5579 5579 5579 5578 5578 5575 5572 5567 5561 5558 5554 5549 5542 5535 5527 5519 5511 5501 5490 5478 5464 5452 5439 5426 5412 5399 5385 5370 5354 5338 5319 5299 5284 5266 5251
5577 5577 5578 5577 5576 5577 5577 5577 5577 5577 5575 5573 5569 5566 5563 5559 5555 5550 5545 5538 5531 5524 5516 5508 5496 5485 5473 5461 5448 5433 5416 5404 5394 5381 5367 5354 5339 5324 5307 5287 5270 5253 5238
5576 5575 5575 5575 5575 5576 5576 5575 5574 5571 5569 5566 5561 5558 5554 5550 5546 5540 5535 5528 5520 5512 5503 5492 5482 5471 5460 5447 5433 5419 5404 5393 5380 5366 5351 5336 5324 5309 5293 5275 5256 5240 5228
5574 5574 5573 5574 5573 5572 5571 5569 5567 5564 5560 5557 5554 5551 5546 5541 5536 5531 5524 5515 5507 5498 5489 5478 5468 5456 5443 5430 5420 5407 5395 5380 5367 5352 5338 5323 5308 5293 5277 5261 5245 5228 5218
5574 5573 5572 5571 5569 5567 5565 5563 5560 5556 5553 5551 5547 5542 5537 5531 5526 5518 5509 5501 5493 5484 5473 5463 5452 5441 5430 5420 5408 5395 5381 5367 5354 5339 5324 5308 5293 5279 5263 5247 5232 5216 5205
5570 5569 5567 5566 5564 5562 5560 5557 5554 5551 5547 5542 5538 5533 5527 5519 5511 5503 5496 5488 5479 5469 5459 5448 5438 5428 5418 5407 5394 5380 5365 5352 5338 5323 5308 5293 5278 5263 5249 5233 5218 5203 5192
5566 5564 5562 5560 5558 5556 5553 5550 5546 5542 5538 5534 5528 5521 5513 5505 5498 5491 5483 5474 5465 5455 5447 5436 5425 5414 5404 5392 5379 5366 5353 5338 5324 5309 5294 5278 5263 5248 5234 5220 5204 5191 5180
5562 5560 5558 5556 5552 5549 5545 5541 5537 5533 5528 5522 5515 5508 5502 5495 5487 5478 5468 5460 5452 5443 5433 5422 5410 5399 5388 5376 5365 5352 5337 5323 5308 5293 5278 5263 5248 5234 5219 5205 5191 5178 5167
5554 5552 5549 5546 5543 5540 5535 5531 5526 5522 5517 5511 5505 5498 5491 5483 5475 5466 5457 5448 5439 5429 5419 5408 5396 5384 5372 5360 5348 5336 5322 5308 5293 5278 5264 5248 5232 5217 5204 5190 5177 5164 5153
5548 5545 5542 5538 5534 5529 5525 5521 5517 5513 5507 5501 5494 5487 5479 5471 5462 5453 5444 5435 5425 5414 5403 5392 5381 5370 5356 5343 5329 5316 5304 5289 5275 5261 5249 5234 5217 5202 5189 5176 5163 5151 5141
5542 5538 5534 5530 5525 5521 5517 5513 5508 5503 5496 5490 5483 5475 5467 5458 5449 5440 5431 5421 5411 5400 5388 5377 5365 5354 5341 5328 5315 5301 5287 5271 5258 5245 5230 5216 5202 5187 5174 5162 5149 5137 5128
5533 5529 5525 5520 5516 5511 5507 5503 5497 5492 5486 5479 5471 5462 5454 5445 5436 5427 5417 5407 5396 5386 5374 5361 5349 5338 5326 5314 5300 5285 5270 5255 5241 5227 5214 5200 5186 5171 5158 5147 5135 5125 5115
5524 5520 5515 5511 5506 5502 5498 5493 5487 5482 5475 5467 5459 5451 5442 5432 5422 5412 5401 5391 5381 5371 5359 5347 5335 5323 5311 5298 5284 5270 5255 5241 5227 5212 5198 5185 5173 5158 5144 5133 5122 5112 5104